Hourly Data Report for September 28, 2022

DRYDEN REGIONAL
ONTARIO
Current Station Operator: NAVCAN

49°49'39.000" N
92°44'39.000" W
412.70 m
6032125
71527
YHD

Download Data

Hourly Data (September 2022)
Hourly Data Report for September 28, 2022
TIME
LST
Temp Definition
°C
Dew Point Definition
°C
Rel Hum Definition
%
Precip. Amount Definition
mm

Wind Dir Definition
10's deg

Wind Spd Definition
km/h
Visibility Definition
km
Stn Press Definition
kPa
Hmdx Definition


Wind Chill Definition


Weather Definition


00:00 3.0 0.7 85 0.0   0 16.1 98.02     LegendNANA
01:00 2.0 0.0 87 0.0 24 4 16.1 98.08     LegendNANA
02:00 0.2 -0.8 93 0.0 23 5 16.1 98.11     LegendNANA
03:00 2.2 -0.2 84 0.0 21 9 16.1 98.12     LegendNANA
04:00 2.1 1.2 94 0.0 19 11 16.1 98.11     LegendNANA
05:00 2.3 1.0 91 0.0 18 11 16.1 98.12     LegendNANA
06:00 1.9 0.4 90 0.0 18 11 16.1 98.15     LegendNANA
07:00 2.7 0.5 85 0.0 21 11 16.1 98.15     LegendNANA
08:00 5.4 1.9 78 0.0 22 13 16.1 98.16     LegendNANA
09:00 7.8 0.9 62 0.0 21 18 16.1 98.18     LegendNANA
10:00 9.6 1.1 55 0.0 22 17 16.1 98.19     LegendNANA
11:00 10.7 1.1 51 0.0 23 18 16.1 98.16     LegendNANA
12:00 12.4 1.4 47 0.0 21 15 16.1 98.11     LegendNANA
13:00 13.4 2.1 46 0.0 18 17 16.1 98.02     LegendNANA
14:00 14.0 1.5 42 0.0 20 18 16.1 97.94     LegendNANA
15:00 14.0 2.1 44 0.0 18 15 16.1 97.86     LegendNANA
16:00 14.0 0.7 40 0.0 20 24 16.1 97.79     LegendNANA
17:00 13.2 0.8 43 0.0 20 18 16.1 97.76     LegendNANA
18:00 11.4 0.8 48 0.0 20 17 16.1 97.74     LegendNANA
19:00 10.0 2.7 60 0.0 19 13 16.1 97.70     LegendNANA
20:00 9.4 2.7 63 0.0 18 15 16.1 97.67     LegendNANA
21:00 8.9 2.7 65 0.0 19 17 16.1 97.62     LegendNANA
22:00 8.9 2.7 65 0.0 20 17 16.1 97.61     LegendNANA
23:00 8.9 2.7 65 0.0 21 15 16.1 97.61     LegendNANA

Notes on Data Quality.

Legend

  • E = Estimated
  • M = Missing
  • NA = Not Available*
  • [empty] = Indicates an unobserved value
Date modified: